Flag for Finland Weather past 2 weeks in Pori, Finland

Now
52 °F

Passing clouds.


Feels Like: 52 °F
Forecast: 51 / 63 °F
Wind: 2 mph from Southeast

Location: Pori Airport

Current Time: Jul 29, 2015 at 3:44:49 AM

Latest Report: Jul 29, 2015 at 3:20 AM


Visibility: N/A

Pressure: 29.56 "Hg

Humidity: 100%

Dew point: 52 °F

Location of PoriLocation

Historic Weather in Pori — Graph

°F

Pori temperature yesterday

Maximum temperature yesterday: 68 °F (at 3:20 PM)
Minimum temperature yesterday: 48 °F (at 3:50 AM)
Average temperature yesterday: 60 °F

Past Weeks' High & Low Weather Summary

 TemperatureHumidityPressure
High70 °F (Jul 15, 3:50 PM)100% (Jul 14, 2:20 AM)29.92 "Hg (Jul 14, 2:20 AM)
Low46 °F (Jul 14, 3:50 AM)43% (Jul 21, 11:50 AM)29.45 "Hg (Jul 26, 3:50 PM)
Average59 °F81%29.69 "Hg
* Reported Jul 14 2:20 AM — Jul 29 2:20 AM, Pori, Weather by CustomWeather, © 2015

Note: Actual official high and low records may vary slightly from our data, if they occured in-between our weather recording intervals... More about our weather records

Advertising

Pori weather history for previous 24 hours

 ConditionsComfort  
Time TempWeatherWind HumidityBarometerVisibility
2:20 AM
Wed, Jul 29
54 °FPassing clouds.1 mph94%29.56 "HgN/A
1:50 AM55 °FPassing clouds.No wind94%29.56 "HgN/A
11:20 PM
Tue, Jul 28
59 °FSunny.3 mph82%29.59 "Hg10 mi
10:50 PM59 °FPassing clouds.5 mph82%29.59 "HgN/A
10:20 PM59 °FPassing clouds.6 mph88%29.59 "HgN/A
9:20 PM61 °FSunny.8 mph77%29.59 "Hg10 mi
8:50 PM61 °FSunny.6 mph72%29.59 "Hg10 mi
8:20 PM63 °FSunny.8 mph68%29.59 "Hg10 mi
7:50 PM64 °FScattered clouds.9 mph64%29.59 "HgN/A
7:20 PM64 °FPartly sunny.9 mph68%29.59 "HgN/A
6:50 PM66 °FScattered clouds.8 mph64%29.59 "HgN/A
6:20 PM66 °FPassing clouds.7 mph68%29.59 "HgN/A
5:50 PM66 °FScattered clouds.8 mph64%29.59 "HgN/A
5:20 PM64 °FScattered clouds.10 mph73%29.62 "HgN/A
4:50 PM66 °FBroken clouds.10 mph68%29.62 "HgN/A
4:20 PM64 °FPartly sunny.6 mph73%29.62 "HgN/A
3:50 PM68 °FBroken clouds.6 mph53%29.62 "HgN/A
3:20 PM68 °FScattered clouds.5 mph49%29.62 "HgN/A
2:50 PM66 °FScattered clouds.3 mph56%29.65 "HgN/A
2:20 PM66 °FScattered clouds.5 mph60%29.65 "HgN/A
1:50 PM66 °FPassing clouds.5 mph60%29.65 "HgN/A
1:20 PM66 °FPassing clouds.5 mph60%29.65 "HgN/A
12:50 PM66 °FPassing clouds.6 mph60%29.65 "HgN/A
12:20 PM64 °FPassing clouds.7 mph64%29.65 "HgN/A
11:50 AM64 °FPassing clouds.8 mph68%29.65 "HgN/A
11:20 AM64 °FScattered clouds.7 mph68%29.65 "HgN/A
10:50 AM63 °FPassing clouds.5 mph68%29.65 "HgN/A
10:20 AM61 °FPassing clouds.6 mph77%29.65 "HgN/A
9:50 AM61 °FPassing clouds.10 mph77%29.65 "HgN/A
9:20 AM59 °FPassing clouds.9 mph82%29.65 "HgN/A
8:50 AM57 °FPassing clouds.7 mph88%29.65 "HgN/A
8:20 AM57 °FSunny.8 mph88%29.65 "Hg10 mi
7:50 AM55 °FPassing clouds.7 mph88%29.68 "HgN/A
7:20 AM54 °FPassing clouds.6 mph94%29.68 "HgN/A
6:50 AM54 °FPassing clouds.7 mph94%29.68 "HgN/A
6:20 AM52 °FPassing clouds.6 mph94%29.68 "HgN/A
5:50 AM50 °FPassing clouds.7 mph100%29.68 "HgN/A
5:20 AM50 °FPassing clouds.7 mph94%29.65 "HgN/A
4:50 AM48 °FCool.9 mph100%29.65 "Hg6 mi
4:20 AM48 °FClear.8 mph100%29.65 "Hg10 mi
3:50 AM48 °FClear.7 mph100%29.68 "Hg10 mi
3:20 AM50 °FClear.10 mph100%29.68 "Hg10 mi
Weather by CustomWeather, © 2015

See weather overviewHow to use our weather pages